Date String (YYYY-MM-DD hh:mm:ss) UTC,Instrument flags,Ambient pressure (hPa),Sample flow (lpm),Bypass flow (lpm),Sample temperature (°C),Ambient temperature (°C),ASC tube jacket temperature (°C),LED temperature (°C),Box temperature (°C),Sample RH (%),Span deviation,Mass concentration (μg/m³),Mass concentration (μg/m³),Mass concentration (μg/m³)
DateTimeUTC,F1_M11,P_M11,Q1_M11,Q2_M11,T1_M11,T2_M11,T3_M11,T4_M11,T5_M11,U1_M11,ZSPAN_M11,X0_M11,X2_M11,X1_M11
2022-05-16 22:00:00,,0821.8,5.00,0.00,29.0,26.6,00.0,38.0,30.6,14.2,0000.0,0016.25,0004.05,0002.68
2022-05-16 22:01:00,,0821.8,4.99,0.00,29.0,27.0,00.0,38.0,30.7,14.2,0000.0,0016.37,0004.08,0002.70
2022-05-16 22:02:00,,0821.9,5.00,0.00,29.0,27.3,00.0,38.0,30.8,14.6,0000.0,0016.33,0004.11,0002.72
2022-05-16 22:03:00,,0822.0,5.00,0.00,29.1,27.6,00.0,38.0,30.9,13.9,0000.0,0014.45,0004.16,0002.75
2022-05-16 22:04:00,,0822.0,5.00,0.00,29.1,27.8,00.0,38.0,31.0,13.7,0000.0,0014.87,0004.21,0002.75
2022-05-16 22:05:00,,0821.8,5.00,0.00,29.2,28.0,00.0,38.0,31.1,14.1,0000.0,0014.48,0004.18,0002.78
2022-05-16 22:06:00,,0821.8,4.99,0.00,29.2,28.2,00.0,38.1,31.2,14.4,0000.0,0013.52,0004.12,0002.78
2022-05-16 22:07:00,,0821.8,5.00,0.00,29.3,28.4,00.0,38.1,31.3,14.1,0000.0,0013.98,0004.14,0002.79
2022-05-16 22:08:00,,0821.8,5.01,0.00,29.3,27.8,00.0,38.1,31.2,14.4,0000.0,0015.20,0004.09,0002.78
2022-05-16 22:09:00,,0821.7,5.00,0.00,29.2,25.6,00.0,38.1,30.8,13.9,0000.0,0015.76,0004.05,0002.76
2022-05-16 22:10:00,,0821.6,5.00,0.00,29.1,24.9,00.0,38.0,30.6,14.5,0000.0,0015.71,0004.06,0002.76
2022-05-16 22:11:00,,0821.6,5.01,0.00,29.0,25.4,00.0,38.0,30.6,14.6,0000.0,0017.46,0004.09,0002.77
2022-05-16 22:12:00,,0821.6,5.00,0.00,29.0,25.8,00.0,38.0,30.5,13.9,0000.0,0018.58,0004.13,0002.79
2022-05-16 22:13:00,,0821.6,5.00,0.00,29.0,26.3,00.0,38.0,30.6,14.6,0000.0,0018.39,0004.19,0002.79
2022-05-16 22:14:00,,0821.6,5.00,0.00,29.0,26.7,00.0,38.0,30.7,14.6,0000.0,0018.65,0004.22,0002.81
2022-05-16 22:15:00,,0821.7,5.01,0.00,29.0,27.1,00.0,38.0,30.8,14.0,0000.0,0017.80,0004.24,0002.83
2022-05-16 22:16:00,,0821.7,5.00,0.00,29.0,27.4,00.0,38.0,30.9,14.7,0000.0,0018.15,0004.30,0002.83
2022-05-16 22:17:00,,0821.7,4.98,0.00,29.1,27.7,00.0,38.0,31.0,14.6,0000.0,0018.46,0004.31,0002.85
2022-05-16 22:18:00,,0821.7,5.00,0.00,29.1,27.9,00.0,38.0,31.0,14.1,0000.0,0018.61,0004.31,0002.82
2022-05-16 22:19:00,,0821.8,5.00,0.00,29.2,28.1,00.0,38.1,31.1,14.0,0000.0,0018.46,0004.37,0002.81
2022-05-16 22:20:00,,0821.7,5.00,0.00,29.2,28.2,00.0,38.1,31.2,13.3,0000.0,0017.99,0004.37,0002.81
2022-05-16 22:21:00,,0821.7,5.00,0.00,29.3,28.1,00.0,38.1,31.2,12.7,0000.0,0018.17,0004.35,0002.79
2022-05-16 22:22:00,,0821.7,5.00,0.00,29.3,26.2,00.0,38.1,30.9,12.7,0000.0,0017.58,0004.33,0002.77
2022-05-16 22:23:00,,0821.7,5.01,0.00,29.1,24.8,00.0,38.1,30.6,12.8,0000.0,0016.21,0004.28,0002.73
2022-05-16 22:24:00,,0821.7,5.00,0.00,29.0,25.2,00.0,38.0,30.5,12.7,0000.0,0016.43,0004.25,0002.71
2022-05-16 22:25:00,,0821.7,4.99,0.00,29.0,25.7,00.0,38.0,30.6,12.6,0000.0,0016.29,0004.24,0002.70
2022-05-16 22:26:00,,0821.7,5.00,0.00,29.0,26.2,00.0,38.0,30.6,12.3,0000.0,0015.78,0004.17,0002.66
2022-05-16 22:27:00,,0821.7,5.00,0.00,29.0,26.6,00.0,38.0,30.7,12.3,0000.0,0015.67,0004.11,0002.63
2022-05-16 22:28:00,,0821.7,5.01,0.00,29.0,27.0,00.0,38.0,30.8,12.3,0000.0,0015.69,0004.09,0002.59
2022-05-16 22:29:00,,0821.7,4.99,0.00,29.0,27.3,00.0,38.0,30.9,12.7,0000.0,0014.63,0004.04,0002.57
2022-05-16 22:30:00,,0821.7,5.00,0.00,29.1,27.6,00.0,38.0,30.9,12.4,0000.0,0014.26,0003.98,0002.57
2022-05-16 22:31:00,,0821.8,5.00,0.00,29.1,27.8,00.0,38.0,31.0,12.2,0000.0,0014.17,0003.96,0002.56
2022-05-16 22:32:00,,0821.7,5.00,0.00,29.1,28.0,00.0,38.0,31.1,12.3,0000.0,0014.30,0003.99,0002.56
2022-05-16 22:33:00,,0821.7,5.00,0.00,29.2,28.1,00.0,38.1,31.1,12.3,0000.0,0013.52,0004.01,0002.57
2022-05-16 22:34:00,,0821.8,4.99,0.00,29.2,28.3,00.0,38.1,31.2,11.9,0000.0,0012.71,0004.02,0002.56
2022-05-16 22:35:00,,0821.7,5.00,0.00,29.3,28.4,00.0,38.1,31.2,11.6,0000.0,0012.39,0004.02,0002.57
2022-05-16 22:36:00,,0821.7,5.00,0.00,29.3,27.3,00.0,38.1,31.1,11.9,0000.0,0012.49,0003.96,0002.55
2022-05-16 22:37:00,,0821.7,5.01,0.00,29.2,25.1,00.0,38.1,30.7,12.5,0000.0,0013.13,0003.96,0002.56
2022-05-16 22:38:00,,0821.7,5.00,0.00,29.1,25.0,00.0,38.1,30.5,12.2,0000.0,0013.06,0003.96,0002.58
2022-05-16 22:39:00,,0821.7,5.00,0.00,29.0,25.5,00.0,38.0,30.5,12.2,0000.0,0012.48,0003.92,0002.58
2022-05-16 22:40:00,,0821.7,5.00,0.00,29.0,26.0,00.0,38.0,30.6,13.0,0000.0,0012.81,0003.92,0002.60
2022-05-16 22:41:00,,0821.7,4.99,0.00,29.0,26.4,00.0,38.0,30.6,12.6,0000.0,0012.61,0003.97,0002.61
2022-05-16 22:42:00,,0821.6,5.00,0.00,29.0,26.8,00.0,38.0,30.8,12.2,0000.0,0012.02,0003.97,0002.62
2022-05-16 22:43:00,,0821.7,5.02,0.00,29.0,27.2,00.0,38.0,30.8,12.6,0000.0,0012.05,0003.99,0002.62
2022-05-16 22:44:00,,0821.6,5.01,0.00,29.1,27.5,00.0,38.0,30.9,13.0,0000.0,0012.17,0003.94,0002.61
2022-05-16 22:45:00,,0821.7,5.00,0.00,29.1,27.7,00.0,38.0,31.0,13.2,0000.0,0013.08,0003.99,0002.63
2022-05-16 22:46:00,,0821.7,4.99,0.00,29.1,27.9,00.0,38.0,31.1,13.0,0000.0,0013.39,0004.04,0002.66
2022-05-16 22:47:00,,0821.7,5.00,0.00,29.2,28.1,00.0,38.1,31.1,13.2,0000.0,0013.43,0004.06,0002.70
2022-05-16 22:48:00,,0821.7,5.01,0.00,29.2,28.2,00.0,38.1,31.2,13.9,0000.0,0013.02,0004.11,0002.73
2022-05-16 22:49:00,,0821.7,4.98,0.00,29.3,28.4,00.0,38.1,31.2,13.8,0000.0,0012.88,0004.14,0002.76
2022-05-16 22:50:00,,0821.7,5.00,0.00,29.3,28.0,00.0,38.1,31.2,13.7,0000.0,0014.31,0004.19,0002.78
2022-05-16 22:51:00,,0821.7,5.01,0.00,29.2,25.9,00.0,38.1,30.8,13.7,0000.0,0015.88,0004.24,0002.81
2022-05-16 22:52:00,,0821.7,4.99,0.00,29.1,24.8,00.0,38.1,30.5,14.2,0000.0,0016.18,0004.23,0002.81
2022-05-16 22:53:00,,0821.7,5.00,0.00,29.0,25.3,00.0,38.0,30.6,13.8,0000.0,0015.98,0004.27,0002.83
2022-05-16 22:54:00,,0821.7,5.01,0.00,29.0,25.7,00.0,38.0,30.5,13.8,0000.0,0015.68,0004.29,0002.85
2022-05-16 22:55:00,,0821.7,4.98,0.00,29.0,26.2,00.0,38.0,30.6,14.3,0000.0,0016.06,0004.34,0002.87
2022-05-16 22:56:00,,0821.6,5.01,0.00,29.0,26.6,00.0,38.0,30.7,14.4,0000.0,0015.97,0004.39,0002.88
2022-05-16 22:57:00,,0821.7,5.01,0.00,29.0,27.0,00.0,38.0,30.8,14.0,0000.0,0015.90,0004.38,0002.88
2022-05-16 22:58:00,,0821.7,5.00,0.00,29.0,27.3,00.0,38.0,30.9,14.0,0000.0,0015.55,0004.40,0002.86
2022-05-16 22:59:00,,0821.6,5.01,0.00,29.1,27.6,00.0,38.0,31.0,14.2,0000.0,0015.39,0004.39,0002.86
